Date String (YYYY-MM-DD hh:mm:ss) UTC,Instrument flags,absolute air pressure of the measurement (hPa),sample flow rate (lpm),inlet stack bypass flow (lpm),air temperature of the measurement (°C),ambient temperature measured by the external sensor (°C),aerosol sample conditioner tube jacket temperature (°C),OPC LED temperature (°C),internal box temperature (°C),relative humidity of the measurement (%),span deviation,mass concentration of particles derived from Lorenz-Mie calculation of OPC scattering (μg/m³),mass concentration of particles derived from Lorenz-Mie calculation of OPC scattering (μg/m³),mass concentration of particles derived from Lorenz-Mie calculation of OPC scattering (μg/m³)
DateTimeUTC,F1_M11,P_M11,Q1_M11,Q2_M11,T1_M11,T2_M11,T3_M11,T4_M11,T5_M11,U1_M11,ZSPAN_M11,X0_M11,X2_M11,X1_M11
2023-08-03 22:00:00,SystemResetWarning,0832.2,5.01,000.00,033.0,026.2,000.0,040.2,031.6,34.1,0000.0,0008.11,0004.31,0003.62
2023-08-03 22:01:00,SystemResetWarning,0832.2,5.01,000.00,033.0,026.7,000.0,040.2,031.7,33.7,0000.0,0008.05,0004.28,0003.61
2023-08-03 22:02:00,SystemResetWarning,0832.2,4.99,000.00,033.0,027.1,000.0,040.3,031.7,34.4,0000.0,0007.90,0004.22,0003.58
2023-08-03 22:03:00,SystemResetWarning,0832.2,5.00,000.00,033.0,027.5,000.0,040.3,031.8,35.0,0000.0,0008.12,0004.22,0003.57
2023-08-03 22:04:00,SystemResetWarning,0832.2,4.99,000.00,033.1,027.7,000.0,040.4,031.9,33.8,0000.0,0008.58,0004.21,0003.55
2023-08-03 22:05:00,SystemResetWarning,0832.2,4.99,000.00,033.1,026.7,000.0,040.3,031.8,33.5,0000.0,0008.60,0004.14,0003.53
2023-08-03 22:06:00,SystemResetWarning,0832.2,5.00,000.00,033.0,025.5,000.0,040.2,031.6,33.6,0000.0,0008.56,0004.12,0003.52
2023-08-03 22:07:00,SystemResetWarning,0832.2,5.00,000.00,032.9,025.3,000.0,040.1,031.4,33.8,0000.0,0008.74,0004.11,0003.53
2023-08-03 22:08:00,SystemResetWarning,0832.1,5.02,000.00,032.7,025.5,000.0,040.2,031.2,34.3,0000.0,0008.90,0004.10,0003.55
2023-08-03 22:09:00,SystemResetWarning,0832.1,5.00,000.00,032.5,025.9,000.0,040.2,031.3,34.1,0000.0,0008.94,0004.12,0003.57
2023-08-03 22:10:00,SystemResetWarning,0832.1,4.98,000.00,032.4,026.4,000.0,040.2,031.4,34.8,0000.0,0009.15,0004.17,0003.58
2023-08-03 22:11:00,SystemResetWarning,0832.1,5.02,000.00,032.4,026.9,000.0,040.2,031.6,34.6,0000.0,0009.36,0004.22,0003.60
2023-08-03 22:12:00,SystemResetWarning,0832.1,4.98,000.00,032.4,027.3,000.0,040.2,031.7,34.3,0000.0,0009.46,0004.28,0003.61
2023-08-03 22:13:00,SystemResetWarning,0832.2,5.01,000.00,032.4,027.6,000.0,040.2,031.8,34.4,0000.0,0009.46,0004.31,0003.61
2023-08-03 22:14:00,SystemResetWarning,0832.2,5.01,000.00,032.5,027.4,000.0,040.2,031.8,34.3,0000.0,0009.24,0004.34,0003.61
2023-08-03 22:15:00,SystemResetWarning,0832.2,4.98,000.00,032.4,026.1,000.0,040.0,031.6,34.4,0000.0,0008.55,0004.37,0003.61
2023-08-03 22:16:00,SystemResetWarning,0832.1,5.00,000.00,032.4,025.3,000.0,039.9,031.5,34.6,0000.0,0008.51,0004.41,0003.62
2023-08-03 22:17:00,SystemResetWarning,0832.1,5.02,000.00,032.3,025.3,000.0,039.8,031.3,35.1,0000.0,0008.53,0004.43,0003.63
2023-08-03 22:18:00,SystemResetWarning,0832.0,4.99,000.00,032.2,025.7,000.0,039.9,031.3,35.4,0000.0,0008.82,0004.44,0003.63
2023-08-03 22:19:00,SystemResetWarning,0832.0,5.00,000.00,032.4,026.1,000.0,039.9,031.5,36.3,0000.0,0009.12,0004.45,0003.61
2023-08-03 22:20:00,SystemResetWarning,0832.1,5.03,000.00,032.6,026.6,000.0,039.9,031.7,34.4,0000.0,0009.19,0004.46,0003.61
2023-08-03 22:21:00,SystemResetWarning,0832.1,4.97,000.00,032.8,027.0,000.0,039.9,031.8,33.6,0000.0,0009.07,0004.43,0003.60
2023-08-03 22:22:00,SystemResetWarning,0832.2,5.01,000.00,032.9,027.4,000.0,040.0,031.9,33.5,0000.0,0009.05,0004.41,0003.60
2023-08-03 22:23:00,SystemResetWarning,0832.2,5.01,000.00,033.0,027.7,000.0,040.0,032.0,33.2,0000.0,0008.98,0004.36,0003.59
2023-08-03 22:24:00,SystemResetWarning,0832.2,4.98,000.00,033.0,027.0,000.0,040.0,031.9,32.7,0000.0,0009.00,0004.36,0003.59
2023-08-03 22:25:00,SystemResetWarning,0832.2,5.01,000.00,033.0,025.7,000.0,040.0,031.6,32.7,0000.0,0008.97,0004.34,0003.59
2023-08-03 22:26:00,SystemResetWarning,0832.2,5.01,000.00,032.9,025.3,000.0,039.9,031.5,33.0,0000.0,0009.24,0004.29,0003.59
2023-08-03 22:27:00,SystemResetWarning,0832.2,5.00,000.00,032.7,025.5,000.0,040.0,031.3,33.7,0000.0,0009.63,0004.24,0003.59
2023-08-03 22:28:00,SystemResetWarning,0832.2,5.00,000.00,032.6,025.9,000.0,040.0,031.3,34.0,0000.0,0009.63,0004.23,0003.58
2023-08-03 22:29:00,SystemResetWarning,0832.2,5.00,000.00,032.5,026.4,000.0,040.1,031.4,34.1,0000.0,0009.60,0004.24,0003.57
2023-08-03 22:30:00,SystemResetWarning,0832.1,4.99,000.00,032.4,026.8,000.0,040.1,031.5,34.5,0000.0,0009.08,0004.29,0003.59
2023-08-03 22:31:00,SystemResetWarning,0832.2,5.01,000.00,032.4,027.2,000.0,040.1,031.6,34.9,0000.0,0009.77,0004.26,0003.60
2023-08-03 22:32:00,SystemResetWarning,0832.2,4.99,000.00,032.4,027.6,000.0,040.1,031.8,35.2,0000.0,0009.75,0004.27,0003.61
2023-08-03 22:33:00,SystemResetWarning,0832.2,5.00,000.00,032.6,027.6,000.0,040.1,031.9,34.3,0000.0,0010.42,0004.28,0003.62
2023-08-03 22:34:00,SystemResetWarning,0832.2,4.97,000.00,032.6,026.4,000.0,040.0,031.8,34.7,0000.0,0010.41,0004.28,0003.63
2023-08-03 22:35:00,SystemResetWarning,0832.2,5.05,000.00,032.6,025.4,000.0,039.9,031.6,34.6,0000.0,0011.18,0004.29,0003.63
2023-08-03 22:36:00,SystemResetWarning,0832.2,4.96,000.00,032.6,025.4,000.0,039.8,031.5,35.4,0000.0,0011.17,0004.26,0003.64
2023-08-03 22:37:00,SystemResetWarning,0832.2,5.05,000.00,032.6,025.7,000.0,039.9,031.4,34.7,0000.0,0010.97,0004.28,0003.66
2023-08-03 22:38:00,SystemResetWarning,0832.1,4.94,000.00,032.7,026.1,000.0,039.9,031.5,34.9,0000.0,0010.23,0004.30,0003.68
2023-08-03 22:39:00,SystemResetWarning,0832.2,5.06,000.00,032.8,026.6,000.0,040.0,031.7,35.0,0000.0,0010.24,0004.28,0003.69
2023-08-03 22:40:00,SystemResetWarning,0832.1,4.95,000.00,032.9,027.0,000.0,040.0,031.8,33.8,0000.0,0010.86,0004.24,0003.70
2023-08-03 22:41:00,SystemResetWarning,0832.1,5.03,000.00,033.0,027.4,000.0,040.1,031.9,33.4,0000.0,0010.58,0004.19,0003.68
2023-08-03 22:42:00,SystemResetWarning,0832.0,4.99,000.00,033.0,027.6,000.0,040.1,032.0,33.5,0000.0,0009.80,0004.22,0003.68
2023-08-03 22:43:00,SystemResetWarning,0832.0,4.99,000.00,033.1,026.5,000.0,040.1,031.8,33.3,0000.0,0009.97,0004.22,0003.68
2023-08-03 22:44:00,SystemResetWarning,0832.0,5.01,000.00,033.0,025.5,000.0,040.0,031.6,33.6,0000.0,0009.69,0004.22,0003.68
2023-08-03 22:45:00,SystemResetWarning,0832.0,5.01,000.00,032.9,025.4,000.0,040.0,031.4,33.9,0000.0,0009.91,0004.23,0003.69
2023-08-03 22:46:00,SystemResetWarning,0832.0,5.00,000.00,032.7,025.7,000.0,040.1,031.3,33.8,0000.0,0009.30,0004.20,0003.69
2023-08-03 22:47:00,SystemResetWarning,0832.0,5.00,000.00,032.6,026.1,000.0,040.1,031.4,33.8,0000.0,0009.87,0004.21,0003.70
2023-08-03 22:48:00,SystemResetWarning,0832.0,5.00,000.00,032.5,026.6,000.0,040.2,031.5,34.3,0000.0,0010.04,0004.22,0003.69
2023-08-03 22:49:00,SystemResetWarning,0832.0,4.99,000.00,032.4,027.0,000.0,040.2,031.6,34.3,0000.0,0010.38,0004.23,0003.68
2023-08-03 22:50:00,SystemResetWarning,0832.0,5.00,000.00,032.4,027.4,000.0,040.2,031.7,35.9,0000.0,0010.37,0004.29,0003.70
2023-08-03 22:51:00,SystemResetWarning,0832.0,5.01,000.00,032.5,027.7,000.0,040.2,031.9,34.0,0000.0,0009.63,0004.31,0003.71
2023-08-03 22:52:00,SystemResetWarning,0832.1,4.98,000.00,032.6,027.4,000.0,040.1,031.9,32.2,0000.0,0009.92,0004.33,0003.72
2023-08-03 22:53:00,SystemResetWarning,0832.0,5.02,000.00,032.7,026.0,000.0,040.0,031.7,32.0,0000.0,0010.26,0004.35,0003.74
2023-08-03 22:54:00,SystemResetWarning,0832.0,5.00,000.00,032.6,025.4,000.0,039.9,031.5,32.0,0000.0,0010.61,0004.37,0003.75
2023-08-03 22:55:00,SystemResetWarning,0832.0,5.00,000.00,032.5,025.5,000.0,039.9,031.3,32.7,0000.0,0010.56,0004.40,0003.75
2023-08-03 22:56:00,SystemResetWarning,0832.0,5.00,000.00,032.3,025.9,000.0,039.9,031.3,32.4,0000.0,0010.65,0004.43,0003.77
2023-08-03 22:57:00,SystemResetWarning,0832.0,4.99,000.00,032.2,026.4,000.0,040.0,031.4,32.6,0000.0,0010.51,0004.44,0003.77
2023-08-03 22:58:00,SystemResetWarning,0832.0,4.99,000.00,032.2,026.8,000.0,040.0,031.5,34.0,0000.0,0009.98,0004.48,0003.78
2023-08-03 22:59:00,SystemResetWarning,0832.0,5.00,000.00,032.1,027.2,000.0,040.0,031.6,33.0,0000.0,0009.84,0004.46,0003.77
